Weather History for St. Joseph, MO

Change the Weather History Date:

Sunday, December 23, 2012

  Actual Average Record
Temperature  
Mean Temperature 22 °F 27 °F  
Max Temperature 29 °F 37 °F 65 °F (1933)
Min Temperature 15 °F 18 °F -24 °F (1989)
Degree Days  
Heating Degree Days 43 38  
Month to date heating degree days 638 797  
Since 1 July heating degree days 1750 1908  
Cooling Degree Days 0 0  
Month to date cooling degree days 0 0  
Year to date cooling degree days 1565 1221  
Moisture  
Dew Point 17 °F    
Average Humidity 78    
Maximum Humidity 92    
Minimum Humidity 63    
Precipitation  
Precipitation 0.00 in 0.05 in 0.64 in (1915)
Month to date precipitation 0.94 1.17  
Year to date precipitation 23.25 35.25  
Sea Level Pressure  
Sea Level Pressure 30.01 in    
Wind  
Wind Speed 6 mph (North)    
Max Wind Speed 12 mph    
Max Gust Speed 14 mph    
Visibility 5 miles    
Events      
T = Trace of Precipitation, MM = Missing Value Source: NWS Daily Summary

Daily Weather History Graph

Daily Weather History Graph

Search for Another Location

Airport:

Trip Planner

Search our weather history database for the weather conditions in past years. The results will help you decide how hot, cold, wet, or windy it might be!

Date:

Astronomy

Dec. 23, 2012 Rise Set
Actual Time 7:38 AM CST 4:59 PM CST
Civil Twilight 7:07 AM CST 5:30 PM CST
Nautical Twilight 6:34 AM CST 6:04 PM CST
Astronomical Twilight 6:01 AM CST 6:37 PM CST
Moon 1:50 PM CST (12/23) 3:22 AM CST (12/23)
Length of Visible Light 10h 22m
Length of Day
9h 21m
Waxing Gibbous, 82% of the Moon is Illuminated
Dec 23
Waxing Gibbous
Dec 28
Full
Jan 4
Last Quarter
Jan 11
New
Jan 18
First Quarter

Hourly Weather History & Observations

Time (CST) Temp. Windchill Dew Point Humidity Pressure Visibility Wind Dir Wind Speed Gust Speed Precip Events Conditions
12:53 AM 23.0 °F - 19.9 °F 88% 29.99 in 6.0 mi Calm Calm - N/A   Clear
1:53 AM 23.0 °F 17.0 °F 19.9 °F 88% 30.01 in 5.0 mi North 4.6 mph - N/A   Clear
3:24 AM 17.6 °F 9.3 °F 15.8 °F 93% 29.98 in 3.0 mi North 5.8 mph - N/A   Mostly Cloudy
3:31 AM 17.6 °F 9.3 °F 15.8 °F 93% 29.98 in 2.5 mi North 5.8 mph - N/A   Mostly Cloudy
3:42 AM 17.6 °F 9.3 °F 15.8 °F 93% 29.98 in 3.0 mi North 5.8 mph - N/A   Mostly Cloudy
3:53 AM 17.1 °F 8.7 °F 15.1 °F 92% 30.01 in 3.0 mi North 5.8 mph - N/A   Mostly Cloudy
4:22 AM 15.8 °F 5.1 °F 14.0 °F 93% 29.97 in 2.5 mi North 8.1 mph - N/A   Mostly Cloudy
4:39 AM 15.8 °F 5.1 °F 12.2 °F 86% 29.97 in 3.0 mi North 8.1 mph - N/A   Overcast
4:53 AM 16.0 °F 6.3 °F 14.0 °F 92% 30.01 in 3.0 mi North 6.9 mph - N/A   Overcast
5:53 AM 17.1 °F 6.6 °F 14.0 °F 88% 30.01 in 5.0 mi North 8.1 mph - N/A   Mostly Cloudy
6:22 AM 17.6 °F 7.3 °F 14.0 °F 86% 30.01 in 5.0 mi North 8.1 mph - N/A   Overcast
6:53 AM 18.0 °F 4.8 °F 14.0 °F 84% 30.05 in 5.0 mi North 12.7 mph - N/A   Overcast
7:53 AM 16.0 °F 6.3 °F 12.0 °F 84% 30.05 in 4.0 mi North 6.9 mph - N/A   Overcast
8:53 AM 18.0 °F 7.7 °F 12.9 °F 81% 30.06 in 5.0 mi North 8.1 mph - N/A   Haze
9:39 AM 19.4 °F 9.5 °F 12.2 °F 74% 30.03 in 5.0 mi North 8.1 mph - N/A   Haze
9:53 AM 19.0 °F 7.5 °F 12.9 °F 77% 30.06 in 5.0 mi North 10.4 mph - N/A   Haze
10:53 AM 21.0 °F 12.4 °F 15.1 °F 78% 30.06 in 6.0 mi North 6.9 mph - N/A   Haze
11:33 AM 23.0 °F 15.8 °F 15.8 °F 74% 29.99 in 6.0 mi North 5.8 mph - N/A   Haze
11:53 AM 24.1 °F 15.2 °F 17.1 °F 75% 30.01 in 6.0 mi NNW 8.1 mph - N/A   Haze
12:53 PM 27.0 °F 18.7 °F 18.0 °F 69% 29.98 in 7.0 mi North 8.1 mph - N/A   Mostly Cloudy
1:53 PM 28.9 °F 22.8 °F 19.9 °F 69% 29.98 in 7.0 mi NNW 5.8 mph - N/A   Unknown
2:53 PM 28.0 °F 20.0 °F 18.0 °F 66% 29.99 in 7.0 mi North 8.1 mph - N/A   Clear
3:53 PM 27.0 °F 20.5 °F 19.0 °F 72% 29.98 in 7.0 mi NNE 5.8 mph - N/A   Clear
4:53 PM 26.1 °F - 19.9 °F 78% 29.98 in 6.0 mi Calm Calm - N/A   Haze
5:53 PM 26.1 °F - 21.0 °F 81% 29.99 in 7.0 mi Calm Calm - N/A   Clear
6:53 PM 23.0 °F - 19.9 °F 88% 30.00 in 7.0 mi Calm Calm - N/A   Clear
7:53 PM 27.0 °F 19.5 °F 21.0 °F 78% 30.02 in 7.0 mi NW 6.9 mph - N/A   Clear
8:53 PM 24.1 °F 16.0 °F 19.9 °F 84% 30.02 in 6.0 mi NW 6.9 mph - N/A   Clear
9:53 PM 25.0 °F 15.5 °F 19.0 °F 78% 30.02 in 6.0 mi NNW 9.2 mph - N/A   Haze
10:53 PM 23.0 °F 13.9 °F 18.0 °F 81% 30.03 in 6.0 mi NNW 8.1 mph - N/A   Haze
11:53 PM 21.0 °F 9.3 °F 16.0 °F 81% 30.03 in 6.0 mi NNW 11.5 mph - N/A   Haze